^^
Station Historical Data
Daily Summary for January 20, 2017 Units:  Metric    English   Both
« Previous Day
Next Day »
Daily Weekly Monthly Yearly Custom
  High: Low: Average:
Temperature: -17.8 °C -20.8 °C -18.5 °C
Dew Point: -17.8 °C -21.3 °C -19.3 °C
Humidity: Humidity% 72% 91%
Wind Speed: 0km/h 0km/h 0.6km/h
Wind Gust: 0km/h - -
Wind- - WNW
Pressure: 0 hPa 34279.9 hPa -
Precipitation: 0 mm    
Historical Graphs
 
 
Tabular Data for January 20, 2017
Time Temperature Dew Point Pressure Wind Wind Speed Wind Gust Humidity Rainfall Rate (Hourly) solar Conditions
-17.8 °C -17.8 °C 0 hPa Calm     Humidity% 0 mm SoftwareType W/m2 Conditions
00:00 -16.7 °C -19.1 °C 34384.8 hPa NW 1 km/h 9 km/h 73% 0 mm WeatherDisplay:10.37 W/m2 FEW
00:05 -16.8 °C -19.2 °C 34384.8 hPa West 11.9 km/h 11.9 km/h 73% 0 mm WeatherDisplay:10.37 W/m2 FEW
00:10 -16.8 °C -18.9 °C 34384.8 hPa West 1.8 km/h 6 km/h 76% 0 mm WeatherDisplay:10.37 W/m2 FEW
00:15 -16.8 °C -19.3 °C 34384.8 hPa NNW 6.3 km/h 15 km/h 73% 0 mm WeatherDisplay:10.37 W/m2 FEW
00:20 -16.8 °C -19.3 °C 34384.8 hPa West 10.3 km/h 15 km/h 73% 0 mm WeatherDisplay:10.37 W/m2 FEW
00:25 -16.8 °C -19.3 °C 34395 hPa NW 5.5 km/h 9 km/h 72% 0 mm WeatherDisplay:10.37 W/m2 FEW
00:30 -17 °C -19 °C 34405.1 hPa NW 2.1 km/h 7.7 km/h 77% 0 mm WeatherDisplay:10.37 W/m2 FEW
00:35 -17.2 °C -19.2 °C 34405.1 hPa Calm   9 km/h 77% 0 mm WeatherDisplay:10.37 W/m2 FEW
00:40 -17.3 °C -19.1 °C 34405.1 hPa NNW 4.2 km/h 5.1 km/h 79% 0 mm WeatherDisplay:10.37 W/m2 FEW
00:45 -17.4 °C -19.1 °C 34405.1 hPa West 1 km/h 6 km/h 80% 0 mm WeatherDisplay:10.37 W/m2 FEW
00:50 -17.5 °C -19.2 °C 34418.7 hPa NNW 7.2 km/h 11.9 km/h 80% 0 mm WeatherDisplay:10.37 W/m2 FEW
00:55 -17.6 °C -19.2 °C 34418.7 hPa Calm     80% 0 mm WeatherDisplay:10.37 W/m2 FEW
01:00 -17.6 °C -19.1 °C 34418.7 hPa Calm     82% 0 mm WeatherDisplay:10.37 W/m2 FEW
01:05 -17.7 °C -19.3 °C 34418.7 hPa NNW 1.8 km/h 9 km/h 81% 0 mm WeatherDisplay:10.37 W/m2 FEW
01:10 -17.7 °C -19.3 °C 34428.8 hPa Calm     82% 0 mm WeatherDisplay:10.37 W/m2 FEW
01:15 -17.8 °C -19.3 °C 34428.8 hPa Calm     82% 0 mm WeatherDisplay:10.37 W/m2 FEW
01:20 -17.8 °C -19.4 °C 34428.8 hPa Calm   9 km/h 81% 0 mm WeatherDisplay:10.37 W/m2 FEW
01:25 -17.8 °C -19.3 °C 34428.8 hPa South 1.8 km/h 2.6 km/h 82% 0 mm WeatherDisplay:10.37 W/m2 FEW
01:30 -17.8 °C -19.3 °C 34428.8 hPa West 2.1 km/h 5.1 km/h 82% 0 mm WeatherDisplay:10.37 W/m2 FEW
01:35 -17.8 °C -19.3 °C 34428.8 hPa Calm   6 km/h 82% 0 mm WeatherDisplay:10.37 W/m2 FEW
01:40 -17.8 °C -19.3 °C 34428.8 hPa Calm   3.1 km/h 82% 0 mm WeatherDisplay:10.37 W/m2 FEW
01:45 -17.9 °C -19.4 °C 34428.8 hPa Calm   9 km/h 82% 0 mm WeatherDisplay:10.37 W/m2 FEW
01:50 -17.8 °C -19.3 °C 34442.4 hPa NNW 1.3 km/h 5.1 km/h 82% 0 mm WeatherDisplay:10.37 W/m2 FEW
01:55 -17.9 °C -19.4 °C 34442.4 hPa Calm     82% 0 mm WeatherDisplay:10.37 W/m2 FEW
02:00 -17.9 °C -19.3 °C 34442.4 hPa Calm     84% 0 mm WeatherDisplay:10.37 W/m2 FEW
02:05 -18.1 °C -19.3 °C 34442.4 hPa Calm     85% 0 mm WeatherDisplay:10.37 W/m2 FEW
02:10 -18.2 °C -19.3 °C 34442.4 hPa Calm     86% 0 mm WeatherDisplay:10.37 W/m2 FEW
02:15 -18.3 °C -19.4 °C 34442.4 hPa Calm     86% 0 mm WeatherDisplay:10.37 W/m2 FEW
02:20 -18.4 °C -19.4 °C 34442.4 hPa Calm     87% 0 mm WeatherDisplay:10.37 W/m2 FEW
02:25 -18.4 °C -19.4 °C 34452.6 hPa Calm     88% 0 mm WeatherDisplay:10.37 W/m2 FEW
02:30 -18.5 °C -19.5 °C 34452.6 hPa Calm     88% 0 mm WeatherDisplay:10.37 W/m2 FEW
02:35 -18.6 °C -19.6 °C 34452.6 hPa Calm     88% 0 mm WeatherDisplay:10.37 W/m2 FEW
02:40 -18.6 °C -19.6 °C 34452.6 hPa Calm     88% 0 mm WeatherDisplay:10.37 W/m2 FEW
02:45 -18.7 °C -19.5 °C 34462.7 hPa Calm     89% 0 mm WeatherDisplay:10.37 W/m2 FEW
02:50 -18.7 °C -19.6 °C 34452.6 hPa Calm     89% 0 mm WeatherDisplay:10.37 W/m2 FEW
02:55 -18.8 °C -19.6 °C 34452.6 hPa Calm     89% 0 mm WeatherDisplay:10.37 W/m2 FEW
03:00 -18.8 °C -19.7 °C 34462.7 hPa Calm     89% 0 mm WeatherDisplay:10.37 W/m2 FEW
03:05 -18.8 °C -19.7 °C 34462.7 hPa Calm     90% 0 mm WeatherDisplay:10.37 W/m2 FEW
03:10 -18.9 °C -19.7 °C 34462.7 hPa Calm     90% 0 mm WeatherDisplay:10.37 W/m2 FEW
03:15 -18.9 °C -19.7 °C 34462.7 hPa Calm     90% 0 mm WeatherDisplay:10.37 W/m2 FEW
03:20 -19 °C -19.8 °C 34462.7 hPa Calm     90% 0 mm WeatherDisplay:10.37 W/m2 FEW
03:25 -19 °C -19.8 °C 34462.7 hPa Calm     90% 0 mm WeatherDisplay:10.37 W/m2 FEW
03:30 -19.1 °C -19.9 °C 34452.6 hPa Calm     90% 0 mm WeatherDisplay:10.37 W/m2 FEW
03:35 -19.1 °C -19.8 °C 34452.6 hPa Calm     91% 0 mm WeatherDisplay:10.37 W/m2 FEW
03:40 -19.1 °C -19.8 °C 34452.6 hPa Calm     91% 0 mm WeatherDisplay:10.37 W/m2 FEW
03:45 -19.2 °C -19.9 °C 34462.7 hPa Calm     91% 0 mm WeatherDisplay:10.37 W/m2 FEW
03:50 -19.2 °C -19.9 °C 34462.7 hPa Calm     91% 0 mm WeatherDisplay:10.37 W/m2 FEW
03:55 -19.2 °C -19.9 °C 34462.7 hPa Calm     91% 0 mm WeatherDisplay:10.37 W/m2 FEW
04:00 -19.3 °C -19.9 °C 34462.7 hPa West 0.8 km/h 3.1 km/h 91% 0 mm WeatherDisplay:10.37 W/m2 FEW
04:05 -19.3 °C -19.9 °C 34462.7 hPa Calm     91% 0 mm WeatherDisplay:10.37 W/m2 FEW
04:10 -19.3 °C -19.9 °C 34462.7 hPa Calm     91% 0 mm WeatherDisplay:10.37 W/m2 FEW
04:15 -19.3 °C -19.9 °C 34476.3 hPa Calm     92% 0 mm WeatherDisplay:10.37 W/m2 FEW
04:20 -19.3 °C -19.9 °C 34476.3 hPa Calm     92% 0 mm WeatherDisplay:10.37 W/m2 FEW
04:25 -19.3 °C -19.9 °C 34476.3 hPa Calm     92% 0 mm WeatherDisplay:10.37 W/m2 FEW
04:30 -19.3 °C -19.9 °C 34476.3 hPa Calm     92% 0 mm WeatherDisplay:10.37 W/m2 FEW
04:35 -19.3 °C -19.9 °C 34476.3 hPa Calm     92% 0 mm WeatherDisplay:10.37 W/m2 FEW
04:40 -19.3 °C -19.9 °C 34476.3 hPa Calm     92% 0 mm WeatherDisplay:10.37 W/m2 FEW
04:45 -19.3 °C -19.9 °C 34476.3 hPa Calm     92% 0 mm WeatherDisplay:10.37 W/m2 FEW
04:50 -19.4 °C -20 °C 34476.3 hPa Calm     92% 0 mm WeatherDisplay:10.37 W/m2 FEW
04:55 -19.4 °C -20.1 °C 34476.3 hPa Calm     92% 0 mm WeatherDisplay:10.37 W/m2 FEW
05:00 -19.4 °C -20.1 °C 34486.4 hPa Calm   6 km/h 92% 0 mm WeatherDisplay:10.37 W/m2 FEW
05:05 -19.5 °C -20.1 °C 34486.4 hPa Calm     92% 0 mm WeatherDisplay:10.37 W/m2 FEW
05:10 -19.5 °C -20.1 °C 34486.4 hPa West 0.8 km/h   92% 0 mm WeatherDisplay:10.37 W/m2 FEW
05:15 -19.6 °C -20.2 °C 34486.4 hPa Calm     92% 0 mm WeatherDisplay:10.37 W/m2 FEW
05:20 -19.6 °C -20.2 °C 34486.4 hPa Calm     92% 0 mm WeatherDisplay:10.37 W/m2 FEW
05:25 -19.6 °C -20.2 °C 34486.4 hPa Calm     92% 0 mm WeatherDisplay:10.37 W/m2 FEW
05:30 -19.6 °C -20.2 °C 34486.4 hPa West 0.8 km/h   92% 0 mm WeatherDisplay:10.37 W/m2 FEW
05:35 -19.7 °C -20.3 °C 34486.4 hPa West 0.3 km/h 3.1 km/h 92% 0 mm WeatherDisplay:10.37 W/m2 FEW
05:40 -19.6 °C -20.2 °C 34486.4 hPa Calm   6 km/h 92% 0 mm WeatherDisplay:10.37 W/m2 FEW
05:45 -19.6 °C -20.2 °C 34486.4 hPa Calm     92% 0 mm WeatherDisplay:10.37 W/m2 FEW
05:50 -19.7 °C -20.3 °C 34486.4 hPa West 0.5 km/h 3.1 km/h 92% 0 mm WeatherDisplay:10.37 W/m2 FEW
05:55 -19.7 °C -20.3 °C 34486.4 hPa Calm     92% 0 mm WeatherDisplay:10.37 W/m2 FEW
06:00 -19.7 °C -20.3 °C 34486.4 hPa Calm     92% 0 mm WeatherDisplay:10.37 W/m2 FEW
06:05 -19.7 °C -20.3 °C 34486.4 hPa Calm     92% 0 mm WeatherDisplay:10.37 W/m2 FEW
06:10 -19.8 °C -20.4 °C 34486.4 hPa Calm     92% 0 mm WeatherDisplay:10.37 W/m2 FEW
06:15 -19.8 °C -20.4 °C 34476.3 hPa Calm     92% 0 mm WeatherDisplay:10.37 W/m2 FEW
06:20 -19.8 °C -20.4 °C 34486.4 hPa Calm     92% 0 mm WeatherDisplay:10.37 W/m2 FEW
06:25 -19.9 °C -19.9 °C 34486.4 hPa Calm     99% 0 mm WeatherDisplay:10.37 W/m2 FEW
06:30 -19.9 °C -20.6 °C 34476.3 hPa Calm     92% 0 mm WeatherDisplay:10.37 W/m2 FEW
06:36 -20 °C -20.6 °C 34476.3 hPa Calm     92% 0 mm WeatherDisplay:10.37 W/m2 FEW
06:41 -20.1 °C -20.7 °C 34476.3 hPa Calm     92% 0 mm WeatherDisplay:10.37 W/m2 FEW
06:46 -20.1 °C -20.7 °C 34476.3 hPa Calm     92% 0 mm WeatherDisplay:10.37 W/m2 FEW
06:51 -20 °C -20.5 °C 34486.4 hPa Calm     93% 0 mm WeatherDisplay:10.37 W/m2 FEW
06:56 -20 °C -20.5 °C 34486.4 hPa Calm     93% 0 mm WeatherDisplay:10.37 W/m2 FEW
07:01 -20.1 °C -20.7 °C 34486.4 hPa Calm     92% 0 mm WeatherDisplay:10.37 W/m2 FEW
07:06 -20.1 °C -20.7 °C 34486.4 hPa Calm     92% 0 mm WeatherDisplay:10.37 W/m2 FEW
07:11 -20.1 °C -20.7 °C 34476.3 hPa Calm     92% 0 mm WeatherDisplay:10.37 W/m2 FEW
07:16 -20.2 °C -20.8 °C 34476.3 hPa Calm     92% 0 mm WeatherDisplay:10.37 W/m2 FEW
07:21 -20.2 °C -20.8 °C 34486.4 hPa Calm     92% 0 mm WeatherDisplay:10.37 W/m2 FEW
07:26 -20.2 °C -20.9 °C 34476.3 hPa Calm     92% 0 mm WeatherDisplay:10.37 W/m2 FEW
07:31 -20.3 °C -20.9 °C 34476.3 hPa Calm     92% 0 mm WeatherDisplay:10.37 W/m2 FEW
07:36 -20.3 °C -20.9 °C 34476.3 hPa Calm     92% 0 mm WeatherDisplay:10.37 W/m2 FEW
07:41 -20.4 °C -21 °C 34476.3 hPa Calm     92% 0 mm WeatherDisplay:10.37 W/m2 FEW
07:46 -20.4 °C -21 °C 34476.3 hPa Calm     92% 0 mm WeatherDisplay:10.37 W/m2 FEW
07:51 -20.4 °C -21.1 °C 34476.3 hPa Calm     92% 0 mm WeatherDisplay:10.37 W/m2 FEW
07:56 -20.5 °C -21.1 °C 34476.3 hPa Calm     92% 0 mm WeatherDisplay:10.37 W/m2 FEW
08:01 -20.5 °C -21.1 °C 34476.3 hPa Calm     93% 0 mm WeatherDisplay:10.37 W/m2 FEW
08:06 -20.6 °C -21.2 °C 34476.3 hPa Calm     92% 0 mm WeatherDisplay:10.37 W/m2 FEW
08:11 -20.6 °C -21.2 °C 34476.3 hPa Calm     92% 0 mm WeatherDisplay:10.37 W/m2 FEW
08:16 -20.6 °C -21.2 °C 34486.4 hPa Calm     92% 0 mm WeatherDisplay:10.37 W/m2 FEW
08:21 -20.6 °C -21.2 °C 34486.4 hPa Calm     93% 0 mm WeatherDisplay:10.37 W/m2 FEW
08:26 -20.7 °C -21.3 °C 34476.3 hPa Calm     92% 0 mm WeatherDisplay:10.37 W/m2 FEW
08:31 -20.7 °C -21.3 °C 34486.4 hPa Calm     92% 0 mm WeatherDisplay:10.37 W/m2 FEW
08:36 -20.7 °C -21.3 °C 34486.4 hPa Calm     92% 0 mm WeatherDisplay:10.37 W/m2 FEW
08:41 -20.8 °C -21.3 °C 34486.4 hPa Calm     93% 0 mm WeatherDisplay:10.37 W/m2 FEW
08:46 -20.8 °C -21.3 °C 34486.4 hPa Calm     93% 0 mm WeatherDisplay:10.37 W/m2 FEW
08:51 -20.8 °C -21.3 °C 34486.4 hPa Calm     93% 0 mm WeatherDisplay:10.37 W/m2 FEW
08:56 -20.7 °C -21.3 °C 34486.4 hPa Calm     93% 0 mm WeatherDisplay:10.37 W/m2 FEW
09:01 -20.7 °C -21.3 °C 34486.4 hPa Calm     93% 0 mm WeatherDisplay:10.37 W/m2 FEW
09:06 -20.7 °C -21.2 °C 34476.3 hPa Calm     93% 0 mm WeatherDisplay:10.37 W/m2 FEW
09:11 -20.7 °C -21.2 °C 34486.4 hPa Calm     93% 0 mm WeatherDisplay:10.37 W/m2 FEW
09:16 -20.6 °C -21.1 °C 34476.3 hPa Calm     93% 0 mm WeatherDisplay:10.37 W/m2 FEW
09:21 -20.4 °C -21 °C 34486.4 hPa Calm     93% 0 mm WeatherDisplay:10.37 W/m2 FEW
09:26 -20.3 °C -20.9 °C 34486.4 hPa Calm     93% 0 mm WeatherDisplay:10.37 W/m2 FEW
09:31 -20.2 °C -20.8 °C 34476.3 hPa Calm     93% 0 mm WeatherDisplay:10.37 W/m2 FEW
09:36 -20.2 °C -20.7 °C 34476.3 hPa Calm     93% 0 mm WeatherDisplay:10.37 W/m2 FEW
09:41 -20.1 °C -20.7 °C 34476.3 hPa Calm     93% 0 mm WeatherDisplay:10.37 W/m2 FEW
09:46 -20.1 °C -20.6 °C 34476.3 hPa Calm     93% 0 mm WeatherDisplay:10.37 W/m2 FEW
09:51 -20 °C -20.5 °C 34476.3 hPa Calm     93% 0 mm WeatherDisplay:10.37 W/m2 FEW
09:56 -19.9 °C -20.4 °C 34476.3 hPa Calm     93% 0 mm WeatherDisplay:10.37 W/m2 FEW
10:01 -19.8 °C -20.4 °C 34462.7 hPa Calm     92% 0 mm WeatherDisplay:10.37 W/m2 FEW
10:06 -19.8 °C -20.3 °C 34462.7 hPa Calm     93% 0 mm WeatherDisplay:10.37 W/m2 FEW
10:11 -19.7 °C -20.2 °C 34462.7 hPa Calm     93% 0 mm WeatherDisplay:10.37 W/m2 FEW
10:16 -19.6 °C -20.2 °C 34462.7 hPa Calm     93% 0 mm WeatherDisplay:10.37 W/m2 FEW
10:21 -19.6 °C -20.1 °C 34462.7 hPa West 0.8 km/h 6 km/h 93% 0 mm WeatherDisplay:10.37 W/m2 FEW
10:26 -19.4 °C -20.1 °C 34462.7 hPa Calm     92% 0 mm WeatherDisplay:10.37 W/m2 FEW
10:31 -19.4 °C -19.9 °C 34462.7 hPa Calm     93% 0 mm WeatherDisplay:10.37 W/m2 FEW
10:36 -19.3 °C -19.9 °C 34452.6 hPa Calm     93% 0 mm WeatherDisplay:10.37 W/m2 FEW
10:41 -19.3 °C -19.9 °C 34452.6 hPa Calm     92% 0 mm WeatherDisplay:10.37 W/m2 FEW
10:46 -19.3 °C -19.8 °C 34452.6 hPa Calm     93% 0 mm WeatherDisplay:10.37 W/m2 FEW
10:51 -19.3 °C -19.8 °C 34452.6 hPa Calm     93% 0 mm WeatherDisplay:10.37 W/m2 FEW
10:56 -19.3 °C -19.8 °C 34452.6 hPa Calm     93% 0 mm WeatherDisplay:10.37 W/m2 FEW
11:01 -19.3 °C -19.8 °C 34452.6 hPa Calm     93% 0 mm WeatherDisplay:10.37 W/m2 FEW
11:06 -19.3 °C -19.8 °C 34452.6 hPa Calm     93% 0 mm WeatherDisplay:10.37 W/m2 FEW
11:11 -19.2 °C -19.8 °C 34442.4 hPa Calm     93% 0 mm WeatherDisplay:10.37 W/m2 FEW
11:16 -19.2 °C -19.7 °C 34442.4 hPa Calm     93% 0 mm WeatherDisplay:10.37 W/m2 FEW
11:21 -19.1 °C -19.7 °C 34442.4 hPa Calm     93% 0 mm WeatherDisplay:10.37 W/m2 FEW
11:26 -19.1 °C -19.6 °C 34442.4 hPa Calm   3.1 km/h 93% 0 mm WeatherDisplay:10.37 W/m2 FEW
11:31 -19 °C -19.6 °C 34442.4 hPa West 0.5 km/h 3.1 km/h 93% 0 mm WeatherDisplay:10.37 W/m2 FEW
11:36 -18.9 °C -19.4 °C 34442.4 hPa Calm     93% 0 mm WeatherDisplay:10.37 W/m2 FEW
11:41 -18.8 °C -19.4 °C 34442.4 hPa Calm     93% 0 mm WeatherDisplay:10.37 W/m2 FEW
11:46 -18.8 °C -19.3 °C 34428.8 hPa Calm     93% 0 mm WeatherDisplay:10.37 W/m2 FEW
11:51 -18.7 °C -19.3 °C 34428.8 hPa Calm     93% 0 mm WeatherDisplay:10.37 W/m2 FEW
11:56 -18.7 °C -19.2 °C 34428.8 hPa West 0.8 km/h 6 km/h 93% 0 mm WeatherDisplay:10.37 W/m2 FEW
12:01 -18.6 °C -19.1 °C 34428.8 hPa Calm     93% 0 mm WeatherDisplay:10.37 W/m2 FEW
12:06 -18.5 °C -19.1 °C 34428.8 hPa Calm     93% 0 mm WeatherDisplay:10.37 W/m2 FEW
12:11 -18.4 °C -19.1 °C 34418.7 hPa Calm     92% 0 mm WeatherDisplay:10.37 W/m2 FEW
12:16 -18.4 °C -19 °C 34418.7 hPa Calm     92% 0 mm WeatherDisplay:10.37 W/m2 FEW
12:21 -18.3 °C -18.9 °C 34405.1 hPa Calm     92% 0 mm WeatherDisplay:10.37 W/m2 FEW
12:26 -18.3 °C -18.9 °C 34405.1 hPa Calm     92% 0 mm WeatherDisplay:10.37 W/m2 FEW
12:31 -18.3 °C -18.9 °C 34405.1 hPa Calm     92% 0 mm WeatherDisplay:10.37 W/m2 FEW
12:36 -18.2 °C -18.8 °C 34405.1 hPa Calm     92% 0 mm WeatherDisplay:10.37 W/m2 FEW
12:41 -18.2 °C -18.8 °C 34395 hPa Calm     92% 0 mm WeatherDisplay:10.37 W/m2 FEW
12:46 -18.2 °C -18.8 °C 34395 hPa Calm     92% 0 mm WeatherDisplay:10.37 W/m2 FEW
12:51 -18.2 °C -18.8 °C 34395 hPa Calm     92% 0 mm WeatherDisplay:10.37 W/m2 FEW
12:56 -18.1 °C -18.7 °C 34395 hPa Calm     92% 0 mm WeatherDisplay:10.37 W/m2 FEW
13:01 -18.1 °C -18.7 °C 34384.8 hPa West 1 km/h 7.7 km/h 92% 0 mm WeatherDisplay:10.37 W/m2 FEW
13:06 -18 °C -18.7 °C 34384.8 hPa Calm     92% 0 mm WeatherDisplay:10.37 W/m2 FEW
13:11 -17.9 °C -18.6 °C 34384.8 hPa Calm     92% 0 mm WeatherDisplay:10.37 W/m2 FEW
13:16 -17.9 °C -18.6 °C 34384.8 hPa Calm     92% 0 mm WeatherDisplay:10.37 W/m2 FEW
13:21 -17.9 °C -18.6 °C 34384.8 hPa Calm     92% 0 mm WeatherDisplay:10.37 W/m2 FEW
13:26 -17.9 °C -18.5 °C 34371.3 hPa Calm     92% 0 mm WeatherDisplay:10.37 W/m2 FEW
13:31 -17.8 °C -18.5 °C 34371.3 hPa Calm     92% 0 mm WeatherDisplay:10.37 W/m2 FEW
13:36 -17.8 °C -18.5 °C 34371.3 hPa Calm     92% 0 mm WeatherDisplay:10.37 W/m2 FEW
13:41 -17.8 °C -18.4 °C 34361.1 hPa Calm     92% 0 mm WeatherDisplay:10.37 W/m2 FEW
13:46 -17.8 °C -18.4 °C 34361.1 hPa Calm     92% 0 mm WeatherDisplay:10.37 W/m2 FEW
13:51 -17.8 °C -18.4 °C 34361.1 hPa Calm   3.1 km/h 92% 0 mm WeatherDisplay:10.37 W/m2 FEW
13:56 -17.8 °C -18.4 °C 34361.1 hPa Calm     92% 0 mm WeatherDisplay:10.37 W/m2 FEW
14:01 -17.7 °C -18.4 °C 34361.1 hPa Calm     92% 0 mm WeatherDisplay:10.37 W/m2 FEW
14:06 -17.7 °C -18.4 °C 34347.6 hPa Calm     92% 0 mm WeatherDisplay:10.37 W/m2 FEW
14:11 -17.7 °C -18.4 °C 34347.6 hPa Calm     92% 0 mm WeatherDisplay:10.37 W/m2 FEW
14:16 -17.7 °C -18.4 °C 34347.6 hPa Calm     92% 0 mm WeatherDisplay:10.37 W/m2 FEW
14:21 -17.7 °C -18.4 °C 34347.6 hPa Calm     92% 0 mm WeatherDisplay:10.37 W/m2 FEW
14:26 -17.7 °C -18.3 °C 34337.4 hPa Calm   3.1 km/h 92% 0 mm WeatherDisplay:10.37 W/m2 FEW
14:31 -17.7 °C -18.2 °C 34337.4 hPa Calm     93% 0 mm WeatherDisplay:10.37 W/m2 FEW
14:36 -17.7 °C -18.2 °C 34327.3 hPa Calm     93% 0 mm WeatherDisplay:10.37 W/m2 FEW
14:41 -17.7 °C -18.3 °C 34327.3 hPa Calm     92% 0 mm WeatherDisplay:10.37 W/m2 FEW
14:46 -17.7 °C -18.3 °C 34327.3 hPa Calm     92% 0 mm WeatherDisplay:10.37 W/m2 FEW
14:51 -17.7 °C -18.3 °C 34327.3 hPa Calm     92% 0 mm WeatherDisplay:10.37 W/m2 FEW
14:56 -17.7 °C -18.3 °C 34313.7 hPa Calm     92% 0 mm WeatherDisplay:10.37 W/m2 FEW
15:01 -17.7 °C -18.3 °C 34313.7 hPa Calm     92% 0 mm WeatherDisplay:10.37 W/m2 FEW
15:06 -17.7 °C -18.3 °C 34303.6 hPa Calm     92% 0 mm WeatherDisplay:10.37 W/m2 FEW
15:11 -17.7 °C -18.3 °C 34303.6 hPa Calm     92% 0 mm WeatherDisplay:10.37 W/m2 FEW
15:16 -17.7 °C -18.3 °C 34303.6 hPa Calm     92% 0 mm WeatherDisplay:10.37 W/m2 FEW
15:21 -17.7 °C -18.3 °C 34303.6 hPa Calm     92% 0 mm WeatherDisplay:10.37 W/m2 FEW
15:26 -17.7 °C -18.3 °C 34293.4 hPa Calm     92% 0 mm WeatherDisplay:10.37 W/m2 FEW
15:31 -17.7 °C -18.3 °C 34293.4 hPa Calm     92% 0 mm WeatherDisplay:10.37 W/m2 FEW
15:36 -17.7 °C -18.3 °C 34303.6 hPa Calm     92% 0 mm WeatherDisplay:10.37 W/m2 FEW
15:41 -17.7 °C -18.3 °C 34313.7 hPa Calm     92% 0 mm WeatherDisplay:10.37 W/m2 FEW
15:46 -17.7 °C -18.3 °C 34303.6 hPa Calm     92% 0 mm WeatherDisplay:10.37 W/m2 FEW
15:51 -17.7 °C -18.4 °C 34303.6 hPa Calm     92% 0 mm WeatherDisplay:10.37 W/m2 FEW
15:56 -17.7 °C -18.4 °C 34303.6 hPa Calm     92% 0 mm WeatherDisplay:10.37 W/m2 FEW
16:01 -17.7 °C -18.4 °C 34303.6 hPa Calm     92% 0 mm WeatherDisplay:10.37 W/m2 FEW
16:06 -17.7 °C -18.4 °C 34303.6 hPa Calm     92% 0 mm WeatherDisplay:10.37 W/m2 FEW
16:11 -17.7 °C -18.3 °C 34293.4 hPa SSW 0.3 km/h 3.1 km/h 93% 0 mm WeatherDisplay:10.37 W/m2 FEW
16:16 -17.7 °C -18.4 °C 34293.4 hPa Calm     92% 0 mm WeatherDisplay:10.37 W/m2 FEW
16:21 -17.7 °C -18.4 °C 34293.4 hPa Calm     92% 0 mm WeatherDisplay:10.37 W/m2 FEW
16:26 -17.7 °C -18.4 °C 34293.4 hPa Calm     92% 0 mm WeatherDisplay:10.37 W/m2 FEW
16:31 -17.7 °C -18.4 °C 34293.4 hPa Calm     92% 0 mm WeatherDisplay:10.37 W/m2 FEW
16:36 -17.7 °C -18.4 °C 34293.4 hPa Calm     92% 0 mm WeatherDisplay:10.37 W/m2 FEW
16:41 -17.7 °C -18.4 °C 34293.4 hPa Calm     92% 0 mm WeatherDisplay:10.37 W/m2 FEW
16:46 -17.7 °C -18.4 °C 34293.4 hPa Calm     92% 0 mm WeatherDisplay:10.37 W/m2 FEW
16:51 -17.7 °C -18.4 °C 34279.9 hPa Calm     92% 0 mm WeatherDisplay:10.37 W/m2 FEW
16:56 -17.7 °C -18.4 °C 34279.9 hPa Calm     92% 0 mm WeatherDisplay:10.37 W/m2 FEW
17:01 -17.7 °C -18.4 °C 34293.4 hPa Calm     92% 0 mm WeatherDisplay:10.37 W/m2 FEW
17:06 -17.7 °C -18.4 °C 34293.4 hPa Calm     92% 0 mm WeatherDisplay:10.37 W/m2 FEW
17:11 -17.7 °C -18.4 °C 34293.4 hPa Calm     92% 0 mm WeatherDisplay:10.37 W/m2 FEW
17:31 -17.7 °C -18.4 °C 34293.4 hPa Calm     92% 0 mm WeatherDisplay:10.37 W/m2 FEW
17:41 -17.7 °C -18.4 °C 34293.4 hPa Calm     92% 0 mm WeatherDisplay:10.37 W/m2 FEW
17:46 -17.7 °C -18.4 °C 34293.4 hPa SSW 1.3 km/h 6 km/h 92% 0 mm WeatherDisplay:10.37 W/m2 FEW
17:51 -17.7 °C -18.3 °C 34293.4 hPa Calm     92% 0 mm WeatherDisplay:10.37 W/m2 FEW
17:56 -17.7 °C -18.3 °C 34293.4 hPa Calm     92% 0 mm WeatherDisplay:10.37 W/m2 FEW
18:01 -17.7 °C -18.3 °C 34293.4 hPa Calm     92% 0 mm WeatherDisplay:10.37 W/m2 FEW
18:06 -17.7 °C -18.3 °C 34293.4 hPa Calm     92% 0 mm WeatherDisplay:10.37 W/m2 FEW
18:11 -17.7 °C -18.3 °C 34279.9 hPa Calm     92% 0 mm WeatherDisplay:10.37 W/m2 FEW
18:16 -17.7 °C -18.3 °C 34293.4 hPa Calm     92% 0 mm WeatherDisplay:10.37 W/m2 FEW
18:21 -17.7 °C -18.3 °C 34293.4 hPa SSW 2.1 km/h 6 km/h 92% 0 mm WeatherDisplay:10.37 W/m2 FEW
18:26 -17.7 °C -18.4 °C 34293.4 hPa Calm     92% 0 mm WeatherDisplay:10.37 W/m2 FEW
18:31 -17.7 °C -18.4 °C 34293.4 hPa Calm     92% 0 mm WeatherDisplay:10.37 W/m2 FEW
18:41 -17.7 °C -18.3 °C 34303.6 hPa Calm     92% 0 mm WeatherDisplay:10.37 W/m2 FEW
18:46 -17.7 °C -18.3 °C 34293.4 hPa Calm   6 km/h 92% 0 mm WeatherDisplay:10.37 W/m2 FEW
18:51 -17.7 °C -18.3 °C 34293.4 hPa Calm     92% 0 mm WeatherDisplay:10.37 W/m2 FEW
18:56 -17.7 °C -18.3 °C 34303.6 hPa Calm     92% 0 mm WeatherDisplay:10.37 W/m2 FEW
19:01 -17.7 °C -18.3 °C 34303.6 hPa Calm     92% 0 mm WeatherDisplay:10.37 W/m2 FEW
19:06 -17.7 °C -18.3 °C 34303.6 hPa Calm   3.1 km/h 92% 0 mm WeatherDisplay:10.37 W/m2 FEW
19:11 -17.7 °C -18.3 °C 34303.6 hPa WNW 1.3 km/h 7.7 km/h 92% 0 mm WeatherDisplay:10.37 W/m2 FEW
19:16 -17.7 °C -18.3 °C 34303.6 hPa Calm     92% 0 mm WeatherDisplay:10.37 W/m2 FEW
19:21 -17.6 °C -18.3 °C 34303.6 hPa NW 3.4 km/h 11.9 km/h 92% 0 mm WeatherDisplay:10.37 W/m2 FEW
19:26 -17.6 °C -18.3 °C 34303.6 hPa NNW 3.9 km/h 9 km/h 92% 0 mm WeatherDisplay:10.37 W/m2 FEW
19:31 -17.6 °C -18.3 °C 34303.6 hPa NW 6.4 km/h 9 km/h 92% 0 mm WeatherDisplay:10.37 W/m2 FEW
19:36 -17.6 °C -18.3 °C 34313.7 hPa West 2.6 km/h 11.9 km/h 92% 0 mm WeatherDisplay:10.37 W/m2 FEW
19:41 -17.6 °C -18.3 °C 34313.7 hPa WNW 8.9 km/h 15 km/h 92% 0 mm WeatherDisplay:10.37 W/m2 FEW
19:46 -17.6 °C -18.2 °C 34313.7 hPa NNW 5 km/h 9 km/h 92% 0 mm WeatherDisplay:10.37 W/m2 FEW
19:51 -17.6 °C -18.2 °C 34313.7 hPa NNW 4.7 km/h 11.9 km/h 92% 0 mm WeatherDisplay:10.37 W/m2 FEW
19:56 -17.6 °C -18.2 °C 34313.7 hPa Calm     92% 0 mm WeatherDisplay:10.37 W/m2 FEW
19:58 -17.6 °C -18.2 °C 34327.3 hPa NNW 4.3 km/h 10.3 km/h 92% 0 mm WeatherDisplay:10.37 W/m2 FEW
20:03 -17.6 °C -18.2 °C 34327.3 hPa Calm   3.1 km/h 92% 0 mm WeatherDisplay:10.37 W/m2 FEW
20:08 -17.6 °C -18.2 °C 34327.3 hPa NNW 1.8 km/h 6 km/h 92% 0 mm WeatherDisplay:10.37 W/m2 FEW
20:13 -17.6 °C -18.2 °C 34327.3 hPa Calm     92% 0 mm WeatherDisplay:10.37 W/m2 FEW
20:18 -17.6 °C -18.2 °C 34327.3 hPa Calm     92% 0 mm WeatherDisplay:10.37 W/m2 FEW
20:23 -17.6 °C -18.2 °C 34327.3 hPa NNW 0.8 km/h 6 km/h 92% 0 mm WeatherDisplay:10.37 W/m2 FEW
20:28 -17.6 °C -18.2 °C 34337.4 hPa NNW 3.9 km/h 9 km/h 92% 0 mm WeatherDisplay:10.37 W/m2 FEW
20:33 -17.6 °C -18.2 °C 34337.4 hPa NW 6.9 km/h 11.9 km/h 92% 0 mm WeatherDisplay:10.37 W/m2 FEW
20:38 -17.6 °C -18.2 °C 34337.4 hPa Calm     92% 0 mm WeatherDisplay:10.37 W/m2 FEW
20:43 -17.6 °C -18.2 °C 34337.4 hPa NW 1.3 km/h 6 km/h 92% 0 mm WeatherDisplay:10.37 W/m2 FEW
20:48 -17.6 °C -18.2 °C 34337.4 hPa Calm     92% 0 mm WeatherDisplay:10.37 W/m2 FEW
20:53 -17.6 °C -18.2 °C 34347.6 hPa NW 5.1 km/h 15 km/h 92% 0 mm WeatherDisplay:10.37 W/m2 FEW
20:58 -17.6 °C -18.2 °C 34347.6 hPa Calm     92% 0 mm WeatherDisplay:10.37 W/m2 FEW
21:03 -17.6 °C -18.2 °C 34347.6 hPa Calm     92% 0 mm WeatherDisplay:10.37 W/m2 FEW
21:08 -17.6 °C -18.2 °C 34347.6 hPa Calm   6 km/h 92% 0 mm WeatherDisplay:10.37 W/m2 FEW
21:13 -17.6 °C -18.2 °C 34347.6 hPa Calm     92% 0 mm WeatherDisplay:10.37 W/m2 FEW
21:18 -17.6 °C -18.2 °C 34361.1 hPa Calm     92% 0 mm WeatherDisplay:10.37 W/m2 FEW
21:23 -17.6 °C -18.2 °C 34361.1 hPa West 1.8 km/h 5.1 km/h 92% 0 mm WeatherDisplay:10.37 W/m2 FEW
21:28 -17.6 °C -18.2 °C 34361.1 hPa NNW 5 km/h 11.9 km/h 92% 0 mm WeatherDisplay:10.37 W/m2 FEW
21:33 -17.6 °C -18.2 °C 34361.1 hPa Calm     92% 0 mm WeatherDisplay:10.37 W/m2 FEW
21:38 -17.6 °C -18.2 °C 34371.3 hPa WNW 0.3 km/h 5.1 km/h 92% 0 mm WeatherDisplay:10.37 W/m2 FEW
21:43 -17.6 °C -18.2 °C 34361.1 hPa Calm     92% 0 mm WeatherDisplay:10.37 W/m2 FEW
21:48 -17.6 °C -18.2 °C 34371.3 hPa Calm     92% 0 mm WeatherDisplay:10.37 W/m2 FEW
21:53 -17.6 °C -18.2 °C 34371.3 hPa Calm     92% 0 mm WeatherDisplay:10.37 W/m2 FEW
21:58 -17.6 °C -18.3 °C 34371.3 hPa Calm     92% 0 mm WeatherDisplay:10.37 W/m2 FEW
22:03 -17.6 °C -18.3 °C 34384.8 hPa Calm   6 km/h 92% 0 mm WeatherDisplay:10.37 W/m2 FEW
22:08 -17.6 °C -18.3 °C 34384.8 hPa NW 1.6 km/h 9 km/h 92% 0 mm WeatherDisplay:10.37 W/m2 FEW
22:13 -17.7 °C -18.3 °C 34384.8 hPa NW 2.1 km/h 9 km/h 92% 0 mm WeatherDisplay:10.37 W/m2 FEW
22:18 -17.7 °C -18.3 °C 34395 hPa Calm     92% 0 mm WeatherDisplay:10.37 W/m2 FEW
22:23 -17.7 °C -18.3 °C 34395 hPa NW 1.6 km/h 15 km/h 92% 0 mm WeatherDisplay:10.37 W/m2 FEW
22:28 -17.7 °C -18.3 °C 34395 hPa West 6 km/h 15 km/h 92% 0 mm WeatherDisplay:10.37 W/m2 FEW
22:33 -17.7 °C -18.3 °C 34395 hPa West 3.4 km/h 9 km/h 92% 0 mm WeatherDisplay:10.37 W/m2 FEW
22:38 -17.7 °C -18.3 °C 34395 hPa WNW 5.6 km/h 10.3 km/h 92% 0 mm WeatherDisplay:10.37 W/m2 FEW
22:43 -17.7 °C -18.3 °C 34395 hPa NW 6.4 km/h 11.9 km/h 93% 0 mm WeatherDisplay:10.37 W/m2 FEW
22:48 -17.7 °C -18.3 °C 34395 hPa Calm     93% 0 mm WeatherDisplay:10.37 W/m2 FEW
22:53 -17.8 °C -18.3 °C 34395 hPa NW 2.1 km/h 9 km/h 93% 0 mm WeatherDisplay:10.37 W/m2 FEW
22:58 -17.8 °C -18.4 °C 34395 hPa WNW 1.3 km/h 3.1 km/h 93% 0 mm WeatherDisplay:10.37 W/m2 FEW
23:03 -17.9 °C -18.4 °C 34395 hPa Calm     93% 0 mm WeatherDisplay:10.37 W/m2 FEW
23:08 -18 °C -18.6 °C 34395 hPa Calm     93% 0 mm WeatherDisplay:10.37 W/m2 FEW
23:13 -18.1 °C -18.7 °C 34395 hPa NW 2.9 km/h 6 km/h 93% 0 mm WeatherDisplay:10.37 W/m2 FEW
23:18 -18.2 °C -18.7 °C 34405.1 hPa Calm     93% 0 mm WeatherDisplay:10.37 W/m2 FEW
23:23 -18.2 °C -18.8 °C 34395 hPa Calm     93% 0 mm WeatherDisplay:10.37 W/m2 FEW
23:28 -18.3 °C -18.8 °C 34395 hPa Calm     93% 0 mm WeatherDisplay:10.37 W/m2 FEW
23:33 -18.4 °C -18.9 °C 34405.1 hPa Calm     93% 0 mm WeatherDisplay:10.37 W/m2 FEW
23:38 -18.4 °C -19 °C 34405.1 hPa Calm     93% 0 mm WeatherDisplay:10.37 W/m2 FEW
23:44 -18.5 °C -19.1 °C 34405.1 hPa Calm     93% 0 mm WeatherDisplay:10.37 W/m2 FEW
23:49 -18.6 °C -19.2 °C 34405.1 hPa Calm     93% 0 mm WeatherDisplay:10.37 W/m2 FEW
23:54 -18.7 °C -19.2 °C 34405.1 hPa Calm     93% 0 mm WeatherDisplay:10.37 W/m2 FEW
23:59 -18.7 °C -19.3 °C 34405.1 hPa Calm     93% 0 mm WeatherDisplay:10.37 W/m2 FEW
Tuulensuunkaari, Veikkola, Suomi
Compliments of Weather Underground - 2.5 mb